Other Public Products
Issued by NWS Grand Forks, ND

Home | Current Version | Previous Version | Text Only | Print | Product List | Glossary On
Versions: 1 2 3 4 5 6 7 8 9 10 11 12 13 14 15 16 17 18 19 20 21 22 23 24 25 26 27 28 29 30 31 32 33 34 35 36 37 38 39 40 41 42 43 44 45 46 47 48 49 50
000
FPUS83 KFGF 102010
OPUFGF
PRAIRIE TO PINES WEATHER ROUNDUP
NATIONAL WEATHER SERVICE EASTERN NORTH DAKOTA/GRAND FORKS ND
200 PM CST WED FEB 10 2016

 **SATELLITE DATA USED TO AUGMENT SKY COVER AT AUTOMATED STATIONS**
 *****  WEATHER ACROSS EASTERN NORTH DAKOTA  *****

CITY           SKY/WX    TMP DP  RH WIND       PRES   REMARKS
GRAND FORKS    CLOUDY    10  -1  61 NE9       30.18R WCI  -3
GRAND FORKS AF CLOUDY    10  -2  59 NE7       30.17R WCI  -2
GRAND CITY NWS NOT AVBL
BUXTON           N/A     12   1  62 NE6         N/A  WCI   3
DEVILS LAKE    LGT SNOW   7   2  80 E12       30.12R WCI  -8
FARGO          CLOUDY    15   2  56 NE5       30.13R WCI   8
WAHPETON ARPT  CLOUDY    12   5  73 E7        30.11S WCI   2
$$

 *****  WEATHER ACROSS CENTRAL AND WESTERN NORTH DAKOTA  *****

CITY           SKY/WX    TMP DP  RH WIND       PRES   REMARKS
JAMESTOWN      LGT SNOW  10   4  76 E10       30.06R WCI  -4
BISMARCK       CLOUDY    25  15  66 NE8       30.02R WCI  16
MINOT          CLOUDY    17   7  64 NE5       30.07R WCI  10
MINOT AFB      FLURRIES  15  10  80 NE6       30.07R WCI   6
GARRISON         N/A     24  16  71 N10       30.02R WCI  14
WILLISTON      CLOUDY    31  25  78 N15       30.07R WCI  20
DICKINSON      CLOUDY    37  28  70 N16       29.95R
HETTINGER      SUNNY     48  31  51 NW22G29   29.96R
$$

 *****  OTHER OBSERVATIONS NORTHEAST NORTH DAKOTA  *****

CITY           SKY/WX    TMP DP  RH WIND       PRES   REMARKS
WALHALLA       FAIR       7   1  78 NE6       30.22R WCI  -3
LANGDON        CLOUDY     7   0  72 NE9       30.13R WCI  -7
CAVALIER       FAIR       7   0  72 NE6       30.21R WCI  -3
GRAFTON        FAIR       7   0  72 NE6       30.23R WCI  -3
CANDO          NOT AVBL
FORT TOTTEN      N/A      8   2  77 SE5       29.95S WCI   0
ROLLA          LGT SNOW   5   0  78 E7        30.11R WCI  -7
RUGBY          CLOUDY     7   5  92 E13       30.10R FOG     WCI  -9
 ***** THE ABOVE OBSERVATIONS ARE NON NWS ARE NOT QUALITY
        CONTROLLED AND MAY MIS-REPORT RAIN FOR SNOW...
$$

 *****  OTHER OBSERVATIONS SOUTHEAST NORTH DAKOTA *****

CITY           SKY/WX    TMP DP  RH WIND       PRES   REMARKS
COOPERSTOWN    NOT AVBL
VALLEY CITY    FLURRIES   9   5  85 E13       30.09R WCI  -7
OAKES          FLURRIES  10   7  85 E15       30.04R WCI  -6
GWINNER        CLOUDY    12   9  85 E13       30.06R WCI  -3
SHEYENNE NWR     N/A     10   4  75 E8        29.95S WCI  -2
BUFFALO          N/A     10   3  73 E9          N/A  WCI  -3
WYNDMERE         N/A     10   5  79 E9          N/A  WCI  -2
 ***** THE ABOVE OBSERVATIONS ARE NON NWS ARE NOT QUALITY
       CONTROLLED AND MAY MIS-REPORT RAIN FOR SNOW...
$$

  *****  WEATHER ACROSS NORTHERN MINNESOTA  *****

CITY           SKY/WX    TMP DP  RH WIND       PRES   REMARKS
FLAG ISLAND    SUNNY     -4 -11  71 NW5       30.19R WCI -15
WARROAD        CLOUDY    -2 -11  65 NE5       30.19S WCI -12
ROSEAU         CLOUDY     0  -8  71 NE6         N/A  WCI -12
HALLOCK        CLOUDY     7  -6  56 NE5       30.21R WCI  -2
THF RVR FALLS  CLOUDY     5  -4  66 NE10      30.16R WCI -10
HALSTAD        NOT AVBL
FOSSTON        CLOUDY     9  -4  56 NE7       30.11S WCI  -3
BAUDETTE       CLOUDY    -2 -13  59 W5        30.15S WCI -12
WASKISH        CLOUDY     1  -8  66 W6        30.14S WCI -10
CROOKSTON      CLOUDY     9   0  66 E6        30.18R WCI  -1
$$
  *****  WEATHER ACROSS CENTRAL AND WEST MINNESOTA  *****

CITY           SKY/WX    TMP DP  RH WIND       PRES   REMARKS
BEMIDJI        CLOUDY     5  -6  61 CALM      30.09F
PARK RAPIDS    CLOUDY     9  -6  50 E5        30.07S WCI   1
WADENA         CLOUDY     9  -4  56 CALM      30.07S
DETROIT LAKES  CLOUDY    12   0  57 CALM      30.09R
MOORHEAD       MOSUNNY   12   1  62 CALM      30.14R
FERGUS FALLS   CLOUDY    12   0  57 E3        30.13R
ELBOW LAKE     CLOUDY    12   0  59 SE6       30.09R HAZE    WCI   2
MORRIS MN      CLOUDY    12   1  62 E6        30.07S WCI   3
STAPLES        CLOUDY     9  -6  52 N3        30.08S
WHEATON        LGT SNOW  12   7  79 E8        30.11S WCI   1
$$
  *****  WEATHER ELSEWHERE ACROSS MINNESOTA  *****

CITY           SKY/WX    TMP DP  RH WIND       PRES   REMARKS
DULUTH         SUNNY      8  -9  45 N9        30.04F WCI  -5
INTRNTL FALLS  SUNNY     -1 -13  56 CALM      30.14F
ELY            SUNNY      1  -8  66 W6        30.07S WCI -10
CLOQUET        SUNNY      7  -9  47 CALM      30.06F
BRAINERD       CLOUDY     8  -7  50 NE3       30.09S
HIBBING        FLURRIES   4  -8  57 NW7       30.07F WCI  -8
ALEXANDRIA     CLOUDY    10  -2  58 E6        30.07R WCI   0
SAINT CLOUD    MOSUNNY   10  -4  53 N6        30.09F WCI   0
MINNEAPOLIS    CLOUDY    12  -3  51 N3        30.10F
$$

  *****  WEATHER ACROSS SOUTH DAKOTA  *****

CITY           SKY/WX    TMP DP  RH WIND       PRES   REMARKS
SIOUX FALLS    CLOUDY    18  12  77 E14       29.96S WCI   4
BROOKINGS      CLOUDY    13   9  84 E12       29.96F WCI  -1
WATERTOWN      CLOUDY    13   6  74 E9        29.97S WCI   1
HURON          CLOUDY    23  17  78 E12       29.93F WCI  12
SISSETON         N/A     10   5  80 SE12      30.06S WCI  -5
ABERDEEN       CLOUDY    18  12  77 E12       30.01R WCI   5
MITCHELL       SUNNY     31  22  69 E14       29.93S WCI  21
PIERRE         SUNNY     46  30  53 N15       29.88R
MOBRIDGE       CLOUDY    33  24  69 N12       29.92R WCI  24
RAPID CITY     SUNNY     63  21  20 NW26G38   29.92R
$$

  *****  SOME WEATHER IN NEARBY STATES *****

CITY           SKY/WX    TMP DP  RH WIND       PRES   REMARKS
GLASGOW MT     NOT AVBL
GREAT FALLS MT NOT AVBL
CHEYENNE WY    SUNNY     56  19  23 W24G35    30.10F
SCOTTSBLUFF NE SUNNY     60  24  25 W16G24    30.01F
OMAHA NE       MOSUNNY   35  22  58 SE6       29.91F
DES MOINES IA  FLURRIES  19  12  74 E8        30.03F WCI   9
DAVENPORT IA   CLOUDY    18   3  52 W10       30.06F WCI   6
CHICAGO IL     PTSUNNY   17   3  54 NW12G20   30.01S WCI   4
EAU CLAIRE WI  SUNNY      8  -3  61 NW7       30.08F WCI  -3
LA CROSSE WI   CLOUDY    10  -2  58 W8        30.09S WCI  -2
$$

  *****  SOME NATIONAL WEATHER *****

CITY           SKY/WX    TMP DP  RH WIND       PRES   REMARKS
LA GUARDIA NY  CLOUDY    39  20  46 W16       29.62R
RALEIGH NC     PTSUNNY   37  14  38 W10G22    29.87R
ATLANTA GA     MOSUNNY   37   8  30 NW22G28   30.10R
NEW ORLEANS LA MOSUNNY   56  21  25 CALM      30.31F
OKLAHOMA CITY  SUNNY     69  30  23 SW20G28   30.03F
ALBUQUERQUE NM SUNNY     56  19  23 CALM      30.37F
SALT LAKE CITY FOG       30  28  92 N10       30.51R VSB 1/2 WCI  21
LOS ANGELES CA MOSUNNY   83  25  12 CALM      30.13F
BOISE ID       NOT AVBL
SEATTLE WA     CLOUDY    49  46  90 SE12      30.24R
$$

*** WEATHER ACROSS MANITOBA...SASKATCHEWAN AND ONTARIO ***
                ***ONTARIO***

CITY           SKY/WX    TMP DP  RH WIND       PRES   REMARKS
GERALDTON      PTSUNNY   -6 -15  65 W9        29.98F WCI -22
THUNDER BAY    MOSUNNY    5  -8  56 NW12G17   30.09F WCI -11
SIOUX LOOKOUT  MOSUNNY   -2 -13  60 NW3       30.12F
TORONTO        FLURRIES  25  12  58 W15G23    29.65R WCI  12
BIG TROUT LK   SUNNY     -9 -18  64 W14G20    30.12F WCI -31
PICKLE LAKE    CRYSTALS  -4 -17  54 NW8       30.07S WCI -19
DRYDEN         SUNNY      0 -11  60 SW3       30.13S
KENORA         MOSUNNY    0 -11  60 CALM      30.15S
$$
                *** MANITOBA***

CITY           SKY/WX    TMP DP  RH WIND       PRES   REMARKS
BRANDON        LGT SNOW   5   0  78 E10       30.17R DRFTSNOWWCI -10
DAUPHIN        PTSUNNY    7   1  78 NE6       30.22R WCI  -3
ISLAND LAKE    NOT AVBL
PILOT MOUND      N/A      5   1  85 E7          N/A  WCI  -7
THE PAS        FLURRIES   1  -4  78 N9        30.25R WCI -14
THOMPSON       FLURRIES  -2  -9  71 NW6       30.26F WCI -14
WINNIPEG       CLOUDY     5  -6  61 NE5       30.25R WCI  -4
LYNN LAKE      SUNNY     -4 -11  71 NW8       30.28R WCI -19
CHURCHILL      CRYSTALS -20 -26  76 NW20G26   30.23F BLWGSNOWWCI -48
GILLAM         MOSUNNY  -13 -20  70 W12       30.24F WCI -33
$$
                ***SASKATCHEWAN***

CITY           SKY/WX    TMP DP  RH WIND       PRES   REMARKS
ESTEVAN        CLOUDY    19  14  79 N5        30.07R WCI  13
KINDERSLEY     CLOUDY    32  27  80 N9        30.14S WCI  24
LLOYDMINSTER   PTSUNNY   25  19  80 NE10      30.17S WCI  15
PRINCE ALBERT  CLOUDY    16  10  79 N14       30.21R WCI   1
REGINA         CLOUDY    25  18  74 N13G18    30.10R WCI  13
YORKTON        CLOUDY    10   5  79 VRB2      30.14R   C1F1C2F2C3F3C4F4C5F5C6F6C7F7C8F8C9F9CaFaCbFbCcFcCdFdCe!


USA.gov is the U.S. government's official web portal to all federal, state and local government web resources and services.